GFSWCAN_prec_precacc_183.txt.gz
Total_Precipitation_Accumulation
2.27 2.22 2.05 1.88 1.53 1.37 1.58 1.74 1.50 1.53 1.60 1.57 1.62 1.72 1.72 1.85 2.71 3.25 3.77 2.00 2.84 3.12 0.90 0.58 0.69 0.55 0.38 0.44 0.74 0.67 1.19 0.97 1.28 1.29 1.07 1.15 1.09 0.90 0.76 0.52 0.42 0.62 1.21 1.25 1.20 1.59 0.73 0.31 0.47 0.95 1.29 1.22 1.17 1.25
2.72 2.31 1.92 1.60 1.31 1.38 1.56 1.77 1.54 1.50 1.43 1.50 1.47 1.52 1.78 1.96 2.52 3.21 3.56 2.18 2.04 3.14 1.82 0.69 0.83 0.57 0.38 0.39 0.73 0.88 0.99 1.06 1.21 1.37 1.11 0.97 0.99 0.94 0.92 0.96 0.52 0.67 0.73 0.92 0.94 0.87 0.63 0.38 0.50 0.91 0.90 0.95 0.96 0.99
2.83 2.53 2.26 1.69 1.45 1.46 1.60 1.65 1.47 1.36 1.26 1.31 1.49 1.45 1.77 2.14 2.42 3.25 2.96 2.18 3.25 4.53 2.28 0.93 0.80 0.58 0.55 0.36 0.51 0.92 0.54 0.59 0.79 0.84 1.28 1.05 0.89 0.61 0.83 0.73 0.77 0.94 0.55 0.78 0.77 0.81 0.34 0.24 0.30 0.44 0.50 0.67 0.76 0.69
2.64 2.41 2.03 1.71 1.52 1.55 1.41 1.40 1.29 1.23 1.21 1.28 1.44 1.71 1.93 2.49 2.60 3.20 2.69 2.44 3.04 3.14 2.54 1.08 0.57 0.49 0.56 0.63 0.47 0.63 0.64 0.54 0.68 1.03 1.30 1.02 0.88 0.67 0.99 0.66 0.66 1.02 0.66 0.82 1.04 1.56 0.78 0.66 0.75 0.72 0.55 0.56 0.46 0.44
2.05 1.91 1.78 1.60 1.35 1.40 1.33 1.39 1.36 1.25 1.37 1.30 1.48 1.84 2.52 2.95 3.53 3.84 2.51 2.53 2.48 2.65 2.55 1.24 0.53 0.45 0.47 0.64 0.53 0.55 0.65 0.81 0.96 1.12 1.13 0.71 0.51 0.83 1.19 0.67 0.61 0.72 0.94 0.99 1.18 1.36 1.25 1.16 0.95 0.73 0.58 0.41 0.28 0.21
1.40 1.37 1.55 1.63 1.30 1.32 1.22 1.32 1.44 1.49 1.40 1.42 1.76 2.03 2.74 3.78 5.46 5.89 7.41 4.89 2.63 2.18 3.12 2.19 0.79 0.35 0.41 0.54 0.72 0.90 0.98 1.22 1.35 1.23 0.78 0.61 0.47 1.21 1.57 0.88 0.73 0.82 1.10 0.98 0.92 0.91 0.75 0.71 0.54 0.39 0.33 0.29 0.27 0.20
1.24 1.30 1.50 1.36 1.16 1.07 1.13 1.29 1.37 1.50 1.70 1.85 2.09 2.25 3.50 5.08 4.79 3.69 3.10 2.34 1.64 1.99 2.98 2.65 1.65 0.86 0.49 0.65 1.11 1.06 1.27 1.75 1.94 1.64 0.97 0.49 0.55 1.27 1.62 1.08 0.78 0.81 0.87 0.69 0.60 0.57 0.55 0.42 0.32 0.27 0.27 0.25 0.28 0.22
1.25 1.16 0.99 0.93 0.86 0.91 1.00 1.12 1.30 1.51 1.77 2.30 2.53 3.65 4.85 5.25 4.20 2.67 1.06 0.91 1.06 2.08 2.28 2.32 2.06 2.38 1.12 1.09 1.52 1.35 1.46 1.94 2.19 1.67 1.00 0.62 0.92 1.45 1.65 0.79 0.46 0.40 0.42 0.30 0.21 0.12 0.18 0.11 0.08 0.07 0.06 0.08 0.19 0.35
0.82 0.72 0.69 0.65 0.75 0.87 0.94 1.02 1.30 1.56 2.24 3.34 4.41 6.10 8.30 6.52 4.50 2.54 1.28 1.43 1.47 1.99 1.93 1.09 1.45 2.56 2.01 1.49 1.77 1.86 1.67 2.03 1.37 1.19 0.90 1.06 1.13 1.40 1.07 0.45 0.34 0.21 0.22 0.18 0.07 0.04 0.05 0.02 0.02 0.05 0.06 0.06 0.13 0.33
0.74 0.63 0.64 0.67 0.79 0.89 1.02 1.27 1.56 2.18 3.06 3.78 5.26 6.05 7.65 4.44 2.47 2.88 4.78 4.46 3.42 2.03 1.34 0.87 0.89 1.54 2.01 2.06 1.77 2.24 1.72 1.29 1.08 0.71 0.76 1.08 0.86 0.46 0.32 0.23 0.18 0.14 0.15 0.19 0.21 0.15 0.09 0.09 0.09 0.15 0.25 0.32 0.44 0.41
0.94 0.92 0.97 1.04 1.14 1.31 1.53 1.53 1.76 2.22 2.69 3.48 3.97 4.70 4.32 3.24 3.15 3.82 3.97 2.85 1.94 1.08 0.43 0.44 0.74 1.44 1.59 1.80 1.77 1.48 1.93 1.54 1.10 0.88 0.88 1.00 0.81 0.77 0.29 0.13 0.09 0.11 0.16 0.23 0.26 0.50 0.33 0.27 0.20 0.30 0.39 0.45 0.44 0.31
0.90 1.11 1.19 1.14 1.18 1.35 1.40 1.41 1.30 1.58 1.92 1.74 2.22 3.03 3.82 3.65 2.86 2.42 1.94 1.27 0.72 0.47 0.37 0.34 0.49 0.75 1.47 1.73 1.71 1.22 1.38 1.50 1.84 1.42 1.36 1.08 1.42 0.64 0.16 0.22 0.23 0.18 0.18 0.20 0.29 0.49 0.38 0.42 0.36 0.32 0.31 0.28 0.33 0.42
0.73 0.85 1.00 1.14 1.12 1.11 1.19 1.24 1.37 1.43 1.56 1.81 1.65 2.12 2.30 2.10 1.78 1.42 1.09 0.78 0.57 0.28 0.30 0.38 0.65 0.87 1.13 1.52 1.68 1.36 1.55 1.49 1.40 1.59 1.03 0.97 0.82 0.66 0.50 0.59 0.59 0.54 0.55 0.64 0.61 0.47 0.43 0.37 0.34 0.35 0.43 0.54 0.61 0.74
0.60 0.72 0.74 0.89 1.07 1.27 1.38 1.47 1.80 1.96 2.00 1.78 1.36 1.34 1.27 1.16 0.80 0.80 0.83 0.81 0.59 0.42 0.35 0.41 0.79 1.06 1.05 1.20 1.61 1.52 1.59 1.22 1.32 1.07 0.98 0.83 0.75 0.84 0.71 0.61 0.53 0.55 0.53 0.54 0.60 0.60 0.63 0.68 0.86 0.95 0.97 1.07 0.94 1.00
0.51 0.45 0.66 1.08 1.20 1.18 1.18 1.30 1.68 1.48 1.51 1.30 0.85 0.76 0.78 1.00 0.82 0.84 0.78 0.63 0.65 0.74 0.78 0.94 1.27 1.28 1.06 1.35 1.07 1.05 0.95 0.80 0.68 1.28 1.12 0.95 0.90 0.85 0.71 0.67 0.65 0.67 0.68 0.69 0.75 0.73 0.85 0.88 0.76 0.91 1.00 0.94 0.78 0.82
0.27 0.49 0.74 0.83 0.68 0.78 0.97 1.54 1.70 0.99 0.91 0.79 0.89 1.00 0.92 1.00 1.04 0.86 0.73 0.71 0.85 1.16 1.14 1.24 1.25 1.28 1.24 0.94 0.68 0.61 0.60 0.78 1.22 0.91 0.93 0.94 0.85 0.90 0.88 0.82 0.85 0.87 0.80 0.80 0.84 0.80 0.75 0.71 0.66 0.73 0.71 0.65 0.64 0.52
0.27 0.46 0.72 0.61 0.67 0.78 1.14 1.50 1.38 1.17 0.83 0.77 1.24 1.36 1.19 1.21 1.50 1.23 0.99 0.91 0.91 0.91 0.79 0.83 0.86 0.77 0.80 0.60 0.60 0.61 0.89 0.98 0.98 0.94 0.93 0.93 0.95 1.01 1.05 0.95 0.88 0.74 0.68 0.69 0.68 0.66 0.66 0.68 0.53 0.39 0.45 0.57 0.42 0.36
0.44 0.46 0.54 0.54 0.61 0.89 1.00 0.94 1.09 0.72 0.68 0.98 1.19 1.41 0.87 1.00 1.01 0.99 0.93 0.71 0.62 0.62 0.68 0.84 0.77 0.64 0.80 0.95 0.99 0.98 1.01 1.05 1.08 1.01 0.98 1.01 0.96 0.89 0.80 0.71 0.72 0.61 0.56 0.58 0.49 0.46 0.43 0.39 0.29 0.32 0.29 0.28 0.20 0.19
0.67 0.57 0.77 0.82 0.58 0.64 0.77 0.55 0.37 0.63 1.30 0.94 0.90 0.72 0.55 0.68 0.68 0.63 0.53 0.34 0.22 0.42 0.71 0.78 0.71 0.92 0.98 1.03 1.02 1.00 0.99 0.93 0.95 0.88 0.79 0.79 0.78 0.73 0.68 0.59 0.57 0.59 0.49 0.46 0.33 0.25 0.24 0.19 0.19 0.16 0.16 0.13 0.16 0.20
0.95 0.86 0.88 0.68 0.34 0.38 0.26 0.25 0.14 0.31 0.59 0.54 0.48 0.27 0.24 0.45 0.40 0.24 0.31 0.41 0.27 0.36 0.72 0.96 1.26 1.23 1.12 0.96 0.75 0.76 0.76 0.69 0.56 0.43 0.54 0.61 0.62 0.48 0.54 0.47 0.45 0.40 0.31 0.28 0.23 0.19 0.16 0.15 0.17 0.16 0.16 0.15 0.18 0.21
0.91 1.00 0.77 0.38 0.29 0.26 0.22 0.15 0.14 0.11 0.37 0.30 0.22 0.11 0.17 0.20 0.23 0.24 0.18 0.29 0.77 0.73 0.82 0.96 1.01 1.03 0.70 0.68 0.53 0.42 0.48 0.45 0.43 0.31 0.38 0.49 0.51 0.33 0.35 0.38 0.34 0.30 0.26 0.26 0.24 0.27 0.22 0.23 0.20 0.15 0.16 0.15 0.16 0.15
0.67 0.57 0.60 0.29 0.23 0.20 0.12 0.06 0.09 0.06 0.12 0.25 0.19 0.17 0.27 0.28 0.23 0.21 0.20 0.37 0.72 0.90 0.84 0.64 0.53 0.42 0.32 0.33 0.30 0.24 0.29 0.23 0.26 0.35 0.45 0.38 0.43 0.41 0.43 0.48 0.39 0.36 0.32 0.32 0.28 0.25 0.24 0.19 0.13 0.09 0.09 0.13 0.11 0.10
0.30 0.28 0.33 0.19 0.17 0.17 0.16 0.13 0.13 0.06 0.07 0.15 0.13 0.17 0.18 0.20 0.31 0.25 0.45 0.57 0.89 0.92 0.66 0.40 0.32 0.22 0.23 0.31 0.20 0.17 0.15 0.12 0.16 0.23 0.27 0.29 0.30 0.33 0.32 0.34 0.33 0.32 0.29 0.25 0.17 0.15 0.15 0.10 0.05 0.05 0.09 0.11 0.14 0.16
0.23 0.33 0.48 0.29 0.15 0.21 0.14 0.21 0.15 0.13 0.09 0.10 0.15 0.18 0.16 0.14 0.32 0.42 0.55 0.61 0.82 0.53 0.33 0.39 0.34 0.27 0.22 0.22 0.23 0.25 0.28 0.21 0.24 0.29 0.32 0.25 0.26 0.30 0.21 0.19 0.16 0.14 0.11 0.08 0.04 0.05 0.07 0.11 0.11 0.14 0.13 0.13 0.15 0.15
0.46 0.37 0.48 0.39 0.18 0.14 0.11 0.14 0.16 0.13 0.12 0.07 0.12 0.18 0.14 0.12 0.31 0.39 0.40 0.79 0.57 0.40 0.37 0.36 0.36 0.38 0.39 0.39 0.38 0.34 0.24 0.17 0.16 0.19 0.24 0.16 0.18 0.20 0.18 0.17 0.15 0.14 0.11 0.12 0.11 0.09 0.11 0.12 0.15 0.17 0.17 0.17 0.19 0.21
0.62 0.36 0.28 0.26 0.18 0.21 0.21 0.23 0.21 0.15 0.12 0.20 0.23 0.18 0.17 0.37 0.38 0.47 0.58 0.73 0.52 0.47 0.48 0.46 0.37 0.28 0.26 0.26 0.27 0.23 0.16 0.10 0.09 0.13 0.13 0.07 0.11 0.16 0.22 0.25 0.27 0.27 0.20 0.16 0.15 0.17 0.17 0.15 0.16 0.19 0.25 0.24 0.22 0.24
0.39 0.37 0.17 0.19 0.28 0.29 0.41 0.39 0.40 0.36 0.31 0.34 0.32 0.24 0.31 0.39 0.43 0.74 0.86 0.60 0.52 0.51 0.38 0.30 0.21 0.16 0.18 0.19 0.21 0.15 0.06 0.04 0.06 0.09 0.09 0.13 0.14 0.14 0.17 0.25 0.28 0.26 0.17 0.20 0.23 0.24 0.26 0.27 0.24 0.24 0.27 0.27 0.24 0.25
0.30 0.21 0.34 0.32 0.46 0.50 0.43 0.34 0.39 0.51 0.57 0.42 0.35 0.37 0.41 0.41 0.70 0.80 0.65 0.59 0.45 0.31 0.23 0.19 0.16 0.10 0.12 0.17 0.24 0.18 0.12 0.09 0.06 0.08 0.18 0.26 0.17 0.11 0.12 0.15 0.14 0.12 0.11 0.20 0.28 0.35 0.39 0.38 0.33 0.30 0.31 0.30 0.33 0.37
0.20 0.17 0.20 0.24 0.23 0.31 0.32 0.38 0.43 0.41 0.39 0.36 0.44 0.55 0.40 0.42 0.67 0.62 0.58 0.45 0.37 0.25 0.28 0.29 0.38 0.23 0.20 0.21 0.28 0.27 0.18 0.15 0.12 0.16 0.22 0.28 0.22 0.18 0.13 0.14 0.19 0.20 0.19 0.21 0.33 0.39 0.44 0.45 0.38 0.38 0.37 0.38 0.38 0.41
0.09 0.07 0.15 0.08 0.12 0.30 0.39 0.28 0.30 0.22 0.13 0.26 0.34 0.35 0.32 0.66 0.93 0.63 0.45 0.39 0.37 0.37 0.35 0.31 0.31 0.26 0.26 0.25 0.30 0.40 0.43 0.40 0.32 0.29 0.29 0.24 0.21 0.18 0.15 0.14 0.15 0.18 0.19 0.17 0.21 0.34 0.44 0.47 0.52 0.52 0.44 0.46 0.47 0.45
0.06 0.11 0.11 0.08 0.18 0.25 0.25 0.15 0.14 0.15 0.25 0.38 0.35 0.32 0.37 0.58 0.62 0.51 0.39 0.42 0.36 0.26 0.23 0.28 0.28 0.28 0.30 0.35 0.33 0.29 0.43 0.45 0.36 0.29 0.24 0.21 0.17 0.15 0.14 0.12 0.14 0.19 0.25 0.27 0.25 0.26 0.33 0.39 0.42 0.41 0.36 0.34 0.34 0.29
0.12 0.16 0.14 0.17 0.30 0.26 0.26 0.26 0.21 0.35 0.44 0.48 0.58 0.59 0.58 0.37 0.29 0.34 0.35 0.34 0.33 0.26 0.29 0.32 0.40 0.47 0.41 0.52 0.52 0.49 0.43 0.35 0.27 0.21 0.18 0.16 0.16 0.15 0.12 0.11 0.13 0.18 0.26 0.29 0.28 0.29 0.30 0.29 0.36 0.39 0.37 0.34 0.35 0.32
0.11 0.09 0.11 0.15 0.18 0.20 0.24 0.26 0.20 0.28 0.39 0.43 0.50 0.50 0.48 0.30 0.32 0.42 0.34 0.31 0.54 0.46 0.37 0.37 0.42 0.53 0.54 0.42 0.36 0.35 0.31 0.27 0.21 0.17 0.15 0.15 0.14 0.13 0.11 0.12 0.13 0.15 0.19 0.26 0.28 0.28 0.27 0.26 0.28 0.31 0.30 0.28 0.30 0.29

GFSWCAN_prec_precacc_186.txt.gz
Total_Precipitation_Accumulation
2.29 2.22 2.06 1.89 1.53 1.37 1.58 1.75 1.50 1.53 1.60 1.58 1.63 1.73 1.76 1.93 2.72 3.28 3.79 2.01 2.84 3.12 0.91 0.59 0.69 0.55 0.38 0.44 0.74 0.67 1.19 0.97 1.29 1.29 1.07 1.15 1.09 0.90 0.76 0.52 0.42 0.62 1.21 1.25 1.21 1.61 0.74 0.31 0.47 0.95 1.29 1.22 1.17 1.25
2.72 2.31 1.92 1.60 1.32 1.39 1.56 1.77 1.55 1.50 1.44 1.51 1.49 1.54 1.79 1.98 2.54 3.23 3.60 2.19 2.04 3.14 1.83 0.69 0.83 0.57 0.38 0.39 0.73 0.88 0.99 1.06 1.21 1.37 1.11 0.97 0.99 0.94 0.92 0.96 0.52 0.67 0.73 0.92 0.94 0.87 0.63 0.38 0.50 0.91 0.90 0.95 0.96 0.99
2.83 2.53 2.26 1.71 1.46 1.47 1.60 1.65 1.47 1.37 1.26 1.33 1.51 1.47 1.79 2.15 2.44 3.27 2.97 2.19 3.25 4.53 2.29 0.93 0.80 0.58 0.55 0.36 0.51 0.92 0.54 0.59 0.79 0.84 1.28 1.05 0.89 0.61 0.83 0.73 0.77 0.94 0.55 0.78 0.77 0.81 0.34 0.24 0.30 0.44 0.50 0.67 0.76 0.69
2.64 2.41 2.04 1.73 1.53 1.56 1.41 1.40 1.29 1.24 1.22 1.29 1.46 1.73 1.96 2.50 2.61 3.21 2.70 2.44 3.04 3.14 2.54 1.08 0.57 0.49 0.56 0.63 0.47 0.63 0.64 0.54 0.68 1.03 1.30 1.02 0.88 0.67 0.99 0.66 0.66 1.02 0.66 0.82 1.04 1.56 0.78 0.66 0.75 0.72 0.55 0.56 0.46 0.44
2.05 1.91 1.79 1.60 1.36 1.41 1.34 1.40 1.37 1.27 1.38 1.32 1.51 1.86 2.54 2.97 3.53 3.84 2.51 2.53 2.48 2.65 2.55 1.24 0.53 0.45 0.47 0.64 0.53 0.55 0.65 0.81 0.96 1.12 1.13 0.71 0.51 0.83 1.19 0.67 0.61 0.72 0.94 0.99 1.18 1.36 1.25 1.16 0.95 0.73 0.58 0.41 0.28 0.21
1.41 1.38 1.56 1.63 1.32 1.34 1.24 1.32 1.46 1.51 1.41 1.44 1.78 2.05 2.78 3.79 5.46 5.89 7.42 4.89 2.63 2.18 3.12 2.19 0.79 0.35 0.41 0.54 0.72 0.90 0.98 1.22 1.35 1.23 0.78 0.61 0.47 1.21 1.57 0.88 0.73 0.82 1.10 0.98 0.92 0.91 0.75 0.71 0.54 0.39 0.33 0.29 0.27 0.20
1.25 1.30 1.51 1.38 1.19 1.11 1.16 1.31 1.40 1.51 1.71 1.87 2.12 2.30 3.52 5.08 4.80 3.69 3.11 2.35 1.64 1.99 2.98 2.65 1.65 0.86 0.49 0.66 1.17 1.07 1.27 1.75 1.94 1.64 0.97 0.49 0.55 1.27 1.62 1.08 0.78 0.81 0.87 0.69 0.60 0.57 0.55 0.42 0.32 0.27 0.27 0.25 0.28 0.22
1.26 1.16 1.00 0.95 0.92 0.99 1.07 1.16 1.31 1.52 1.80 2.34 2.59 3.69 4.89 5.31 4.26 2.67 1.06 0.91 1.06 2.08 2.28 2.32 2.06 2.39 1.12 1.10 1.60 1.36 1.46 1.94 2.19 1.67 1.00 0.62 0.92 1.45 1.66 0.79 0.46 0.40 0.42 0.30 0.21 0.12 0.18 0.12 0.08 0.07 0.06 0.08 0.19 0.35
0.83 0.72 0.70 0.66 0.76 0.89 0.96 1.03 1.32 1.60 2.34 3.45 4.48 6.15 8.37 6.65 4.54 2.55 1.28 1.43 1.47 1.99 1.93 1.09 1.46 2.59 2.01 1.50 1.78 1.86 1.67 2.03 1.37 1.19 0.90 1.06 1.13 1.40 1.07 0.45 0.34 0.21 0.22 0.18 0.07 0.04 0.05 0.02 0.02 0.05 0.06 0.06 0.13 0.34
0.75 0.64 0.65 0.68 0.80 0.90 1.04 1.32 1.62 2.31 3.16 3.79 5.26 6.08 7.76 4.56 2.47 2.88 4.80 4.46 3.42 2.03 1.34 0.87 0.89 1.56 2.02 2.06 1.77 2.24 1.73 1.30 1.09 0.71 0.77 1.09 0.86 0.46 0.32 0.23 0.18 0.14 0.16 0.19 0.21 0.15 0.09 0.09 0.09 0.15 0.26 0.32 0.45 0.46
0.98 0.93 0.97 1.06 1.18 1.39 1.66 1.70 1.99 2.41 2.74 3.49 3.98 4.76 4.41 3.27 3.16 3.83 3.98 2.85 1.94 1.08 0.43 0.44 0.75 1.46 1.60 1.82 1.79 1.48 1.93 1.55 1.11 0.88 0.89 1.01 0.81 0.78 0.29 0.13 0.10 0.12 0.16 0.23 0.26 0.50 0.34 0.28 0.21 0.30 0.39 0.46 0.50 0.42
0.96 1.14 1.21 1.17 1.22 1.42 1.49 1.50 1.39 1.60 1.92 1.74 2.23 3.06 3.84 3.65 2.86 2.42 1.95 1.27 0.72 0.47 0.37 0.34 0.49 0.76 1.48 1.74 1.73 1.22 1.38 1.50 1.84 1.42 1.37 1.08 1.42 0.64 0.17 0.23 0.23 0.19 0.20 0.23 0.30 0.50 0.39 0.43 0.37 0.35 0.34 0.29 0.34 0.42
0.78 0.89 1.03 1.17 1.14 1.12 1.19 1.24 1.37 1.43 1.56 1.81 1.65 2.12 2.30 2.10 1.78 1.42 1.09 0.78 0.57 0.28 0.30 0.38 0.65 0.87 1.14 1.53 1.69 1.37 1.55 1.49 1.41 1.60 1.03 0.97 0.82 0.66 0.50 0.60 0.61 0.55 0.57 0.69 0.67 0.56 0.53 0.43 0.37 0.36 0.43 0.54 0.61 0.75
0.63 0.77 0.78 0.91 1.08 1.27 1.38 1.47 1.80 1.96 2.00 1.78 1.36 1.34 1.27 1.16 0.80 0.80 0.83 0.81 0.59 0.42 0.35 0.41 0.79 1.06 1.05 1.20 1.61 1.52 1.59 1.22 1.32 1.08 1.00 0.86 0.75 0.84 0.71 0.61 0.53 0.55 0.53 0.54 0.61 0.61 0.63 0.68 0.86 0.95 0.97 1.08 0.94 1.00
0.51 0.46 0.67 1.09 1.20 1.18 1.18 1.30 1.68 1.48 1.51 1.30 0.85 0.76 0.78 1.00 0.82 0.84 0.78 0.63 0.65 0.74 0.78 0.94 1.27 1.28 1.06 1.35 1.07 1.05 0.96 0.81 0.69 1.31 1.15 0.95 0.90 0.85 0.71 0.67 0.65 0.67 0.68 0.69 0.75 0.73 0.85 0.88 0.76 0.91 1.00 0.94 0.78 0.83
0.27 0.49 0.74 0.83 0.68 0.78 0.97 1.54 1.70 0.99 0.91 0.79 0.89 1.00 0.92 1.00 1.04 0.86 0.73 0.71 0.85 1.16 1.14 1.24 1.25 1.28 1.24 0.94 0.68 0.61 0.60 0.78 1.24 0.93 0.93 0.94 0.85 0.90 0.88 0.82 0.85 0.87 0.80 0.80 0.84 0.80 0.75 0.71 0.66 0.73 0.71 0.65 0.64 0.52
0.27 0.46 0.72 0.61 0.67 0.78 1.14 1.50 1.38 1.17 0.83 0.77 1.24 1.36 1.19 1.21 1.50 1.23 0.99 0.91 0.91 0.91 0.79 0.83 0.86 0.77 0.80 0.61 0.60 0.61 0.89 0.99 0.99 0.95 0.93 0.93 0.95 1.01 1.05 0.95 0.88 0.74 0.68 0.69 0.68 0.66 0.66 0.68 0.54 0.40 0.45 0.57 0.42 0.36
0.44 0.46 0.54 0.54 0.61 0.90 1.00 0.94 1.09 0.72 0.68 0.98 1.19 1.41 0.87 1.00 1.01 0.99 0.93 0.71 0.62 0.62 0.68 0.85 0.78 0.64 0.80 0.95 0.99 0.98 1.01 1.05 1.08 1.01 0.98 1.01 0.96 0.89 0.80 0.71 0.72 0.61 0.56 0.58 0.49 0.46 0.43 0.39 0.29 0.32 0.29 0.28 0.20 0.19
0.67 0.57 0.77 0.82 0.58 0.64 0.77 0.56 0.37 0.63 1.30 0.94 0.91 0.72 0.55 0.68 0.68 0.63 0.53 0.34 0.22 0.42 0.72 0.79 0.72 0.92 0.98 1.03 1.02 1.00 0.99 0.93 0.96 0.88 0.79 0.79 0.78 0.73 0.68 0.59 0.57 0.59 0.49 0.46 0.33 0.25 0.24 0.19 0.19 0.16 0.16 0.13 0.17 0.20
0.95 0.86 0.88 0.68 0.34 0.38 0.26 0.25 0.14 0.31 0.59 0.54 0.48 0.27 0.24 0.45 0.40 0.24 0.31 0.42 0.27 0.37 0.73 0.98 1.27 1.23 1.12 0.96 0.75 0.76 0.76 0.69 0.57 0.48 0.56 0.61 0.62 0.48 0.54 0.47 0.45 0.40 0.31 0.28 0.23 0.19 0.16 0.15 0.17 0.16 0.16 0.15 0.18 0.21
0.91 1.00 0.77 0.38 0.29 0.26 0.22 0.15 0.14 0.11 0.37 0.30 0.22 0.11 0.17 0.21 0.24 0.25 0.18 0.30 0.80 0.77 0.86 0.97 1.02 1.03 0.70 0.68 0.53 0.42 0.48 0.46 0.46 0.33 0.38 0.49 0.51 0.33 0.35 0.38 0.34 0.30 0.26 0.27 0.25 0.28 0.23 0.24 0.21 0.15 0.16 0.15 0.16 0.15
0.67 0.57 0.60 0.29 0.23 0.20 0.12 0.06 0.09 0.07 0.12 0.26 0.20 0.18 0.27 0.28 0.23 0.22 0.21 0.38 0.73 0.91 0.84 0.65 0.53 0.42 0.32 0.33 0.30 0.24 0.29 0.24 0.29 0.39 0.46 0.38 0.43 0.41 0.43 0.48 0.39 0.36 0.33 0.32 0.28 0.26 0.25 0.19 0.13 0.09 0.09 0.14 0.11 0.10
0.30 0.28 0.33 0.19 0.17 0.17 0.16 0.13 0.13 0.06 0.08 0.16 0.14 0.18 0.19 0.20 0.31 0.25 0.46 0.58 0.89 0.92 0.66 0.41 0.33 0.23 0.23 0.31 0.20 0.17 0.15 0.12 0.16 0.23 0.27 0.29 0.30 0.33 0.32 0.34 0.33 0.32 0.29 0.25 0.17 0.16 0.16 0.10 0.05 0.05 0.09 0.11 0.14 0.16
0.23 0.33 0.48 0.29 0.15 0.21 0.14 0.21 0.15 0.13 0.10 0.10 0.16 0.19 0.16 0.15 0.32 0.43 0.56 0.61 0.82 0.53 0.34 0.41 0.37 0.28 0.23 0.22 0.23 0.25 0.28 0.21 0.24 0.29 0.32 0.25 0.26 0.30 0.21 0.19 0.16 0.14 0.12 0.09 0.05 0.05 0.07 0.11 0.11 0.15 0.13 0.14 0.15 0.16
0.46 0.37 0.48 0.39 0.18 0.14 0.11 0.14 0.16 0.14 0.12 0.07 0.14 0.20 0.16 0.16 0.33 0.39 0.40 0.80 0.58 0.41 0.38 0.38 0.40 0.43 0.43 0.42 0.39 0.34 0.24 0.17 0.16 0.19 0.24 0.16 0.18 0.21 0.18 0.17 0.16 0.15 0.12 0.13 0.12 0.10 0.11 0.13 0.15 0.17 0.17 0.18 0.20 0.22
0.62 0.36 0.28 0.26 0.18 0.21 0.21 0.23 0.21 0.16 0.13 0.21 0.25 0.19 0.18 0.41 0.40 0.48 0.58 0.73 0.53 0.48 0.50 0.48 0.39 0.30 0.29 0.28 0.28 0.23 0.16 0.10 0.09 0.13 0.13 0.07 0.11 0.16 0.23 0.25 0.27 0.27 0.21 0.16 0.16 0.19 0.19 0.16 0.17 0.19 0.25 0.24 0.22 0.24
0.39 0.37 0.17 0.19 0.28 0.29 0.41 0.39 0.40 0.36 0.32 0.36 0.33 0.25 0.32 0.42 0.45 0.75 0.87 0.61 0.52 0.52 0.39 0.31 0.22 0.18 0.19 0.20 0.21 0.15 0.06 0.04 0.06 0.09 0.09 0.14 0.15 0.14 0.18 0.25 0.28 0.27 0.18 0.20 0.23 0.26 0.27 0.29 0.26 0.26 0.29 0.29 0.25 0.26
0.30 0.21 0.34 0.32 0.46 0.50 0.43 0.34 0.39 0.51 0.57 0.42 0.35 0.38 0.43 0.43 0.72 0.81 0.66 0.60 0.46 0.32 0.24 0.20 0.17 0.11 0.14 0.18 0.25 0.18 0.12 0.09 0.06 0.08 0.19 0.28 0.18 0.11 0.13 0.15 0.14 0.12 0.11 0.20 0.29 0.35 0.39 0.39 0.34 0.33 0.34 0.33 0.35 0.39
0.20 0.17 0.20 0.24 0.23 0.31 0.32 0.38 0.43 0.41 0.39 0.36 0.44 0.55 0.40 0.42 0.67 0.62 0.58 0.46 0.38 0.27 0.30 0.31 0.40 0.25 0.22 0.22 0.29 0.28 0.19 0.16 0.13 0.17 0.23 0.29 0.23 0.19 0.13 0.14 0.19 0.20 0.19 0.21 0.34 0.39 0.44 0.45 0.39 0.38 0.39 0.40 0.41 0.45
0.09 0.07 0.15 0.08 0.12 0.30 0.39 0.28 0.30 0.22 0.13 0.26 0.34 0.35 0.32 0.66 0.93 0.63 0.45 0.39 0.37 0.37 0.36 0.33 0.34 0.29 0.29 0.28 0.33 0.42 0.45 0.41 0.32 0.31 0.30 0.25 0.22 0.18 0.15 0.14 0.15 0.18 0.19 0.18 0.21 0.35 0.44 0.47 0.52 0.53 0.45 0.48 0.50 0.49
0.06 0.11 0.11 0.08 0.18 0.25 0.25 0.15 0.14 0.15 0.25 0.38 0.35 0.33 0.37 0.59 0.62 0.51 0.39 0.42 0.36 0.26 0.24 0.30 0.30 0.31 0.34 0.39 0.37 0.32 0.46 0.47 0.37 0.30 0.24 0.21 0.17 0.15 0.14 0.12 0.14 0.19 0.25 0.28 0.25 0.26 0.33 0.40 0.43 0.42 0.37 0.35 0.35 0.30
0.12 0.16 0.14 0.17 0.30 0.26 0.26 0.26 0.21 0.35 0.44 0.49 0.58 0.59 0.59 0.37 0.29 0.34 0.35 0.34 0.33 0.27 0.29 0.33 0.42 0.49 0.44 0.55 0.56 0.53 0.45 0.36 0.28 0.21 0.18 0.16 0.16 0.15 0.12 0.11 0.13 0.18 0.26 0.29 0.28 0.30 0.30 0.30 0.37 0.39 0.38 0.35 0.36 0.34
0.11 0.09 0.11 0.15 0.18 0.20 0.24 0.26 0.20 0.28 0.39 0.44 0.51 0.51 0.48 0.30 0.32 0.42 0.34 0.31 0.54 0.47 0.38 0.38 0.44 0.55 0.56 0.45 0.39 0.37 0.33 0.28 0.21 0.17 0.15 0.15 0.14 0.13 0.11 0.12 0.13 0.15 0.19 0.26 0.28 0.28 0.27 0.26 0.28 0.31 0.31 0.29 0.31 0.31

GFSWCAN_prec_precacc_189.txt.gz
Total_Precipitation_Accumulation
2.30 2.23 2.06 1.90 1.53 1.37 1.58 1.75 1.50 1.53 1.61 1.59 1.63 1.74 1.77 1.94 2.73 3.28 3.80 2.01 2.84 3.17 1.04 0.67 0.71 0.56 0.38 0.44 0.74 0.68 1.19 0.98 1.29 1.29 1.07 1.15 1.09 0.90 0.76 0.52 0.42 0.62 1.21 1.25 1.21 1.61 0.74 0.31 0.47 0.95 1.29 1.22 1.17 1.25
2.73 2.31 1.92 1.62 1.34 1.39 1.56 1.77 1.55 1.50 1.45 1.52 1.49 1.54 1.79 1.98 2.54 3.23 3.60 2.19 2.04 3.14 1.87 0.70 0.84 0.58 0.38 0.39 0.73 0.88 0.99 1.06 1.21 1.37 1.11 0.97 0.99 0.94 0.92 0.96 0.52 0.67 0.73 0.92 0.94 0.87 0.63 0.38 0.50 0.91 0.90 0.95 0.96 0.99
2.83 2.53 2.27 1.72 1.48 1.47 1.60 1.65 1.48 1.38 1.27 1.34 1.51 1.48 1.79 2.15 2.44 3.27 2.97 2.19 3.25 4.53 2.34 0.96 0.81 0.58 0.55 0.36 0.51 0.92 0.54 0.59 0.79 0.84 1.28 1.05 0.89 0.61 0.83 0.73 0.77 0.94 0.55 0.78 0.77 0.81 0.34 0.24 0.30 0.44 0.50 0.67 0.76 0.69
2.64 2.41 2.04 1.74 1.54 1.56 1.42 1.40 1.29 1.25 1.23 1.30 1.47 1.73 1.96 2.50 2.61 3.21 2.70 2.44 3.04 3.14 2.57 1.11 0.57 0.49 0.56 0.63 0.47 0.63 0.64 0.54 0.68 1.03 1.30 1.02 0.88 0.67 0.99 0.66 0.66 1.02 0.66 0.82 1.04 1.56 0.78 0.66 0.75 0.72 0.55 0.56 0.46 0.44
2.05 1.91 1.79 1.61 1.37 1.42 1.35 1.40 1.37 1.28 1.39 1.33 1.51 1.86 2.55 2.97 3.53 3.84 2.51 2.53 2.48 2.65 2.56 1.25 0.53 0.45 0.47 0.64 0.53 0.55 0.65 0.81 0.96 1.12 1.13 0.71 0.51 0.83 1.19 0.67 0.61 0.72 0.94 0.99 1.18 1.36 1.25 1.16 0.95 0.73 0.58 0.41 0.28 0.21
1.41 1.38 1.56 1.64 1.33 1.36 1.25 1.33 1.47 1.52 1.42 1.45 1.79 2.06 2.78 3.79 5.46 5.89 7.42 4.89 2.63 2.18 3.12 2.20 0.80 0.35 0.41 0.54 0.72 0.90 0.98 1.22 1.35 1.24 0.79 0.61 0.47 1.21 1.58 0.88 0.73 0.82 1.10 0.98 0.92 0.91 0.75 0.71 0.54 0.39 0.33 0.29 0.27 0.20
1.25 1.31 1.54 1.43 1.24 1.13 1.17 1.32 1.41 1.52 1.72 1.88 2.14 2.31 3.52 5.09 4.81 3.70 3.12 2.35 1.64 1.99 2.98 2.66 1.66 0.87 0.50 0.66 1.17 1.07 1.27 1.76 1.96 1.65 0.98 0.50 0.55 1.27 1.62 1.08 0.78 0.81 0.87 0.69 0.60 0.57 0.55 0.43 0.32 0.27 0.27 0.25 0.28 0.22
1.26 1.17 1.05 1.02 0.95 1.01 1.09 1.17 1.32 1.54 1.82 2.36 2.60 3.70 4.90 5.31 4.26 2.68 1.06 0.91 1.06 2.08 2.28 2.33 2.08 2.41 1.14 1.13 1.65 1.38 1.49 1.96 2.20 1.69 1.02 0.63 0.93 1.46 1.66 0.79 0.46 0.40 0.42 0.30 0.21 0.13 0.19 0.12 0.08 0.07 0.06 0.08 0.20 0.35
0.83 0.73 0.71 0.68 0.79 0.91 0.97 1.05 1.35 1.63 2.36 3.47 4.48 6.15 8.38 6.67 4.55 2.55 1.28 1.43 1.47 1.99 1.94 1.10 1.47 2.63 2.04 1.54 1.84 1.91 1.72 2.07 1.40 1.21 0.92 1.06 1.14 1.40 1.07 0.45 0.34 0.21 0.23 0.18 0.08 0.04 0.05 0.03 0.04 0.06 0.06 0.07 0.13 0.34
0.75 0.64 0.65 0.69 0.81 0.92 1.06 1.34 1.63 2.32 3.16 3.79 5.27 6.08 7.78 4.57 2.48 2.88 4.80 4.46 3.42 2.03 1.34 0.90 0.93 1.58 2.05 2.09 1.80 2.27 1.77 1.34 1.10 0.72 0.78 1.10 0.86 0.46 0.32 0.23 0.18 0.14 0.16 0.19 0.21 0.15 0.10 0.10 0.11 0.16 0.26 0.33 0.45 0.46
0.99 0.95 1.02 1.11 1.26 1.50 1.74 1.75 2.01 2.41 2.74 3.50 3.99 4.78 4.43 3.27 3.17 3.83 3.98 2.86 1.94 1.09 0.44 0.46 0.79 1.48 1.63 1.88 1.82 1.51 1.95 1.56 1.12 0.90 0.90 1.01 0.82 0.78 0.29 0.13 0.10 0.12 0.16 0.24 0.27 0.50 0.34 0.28 0.21 0.30 0.40 0.47 0.51 0.43
0.97 1.14 1.24 1.25 1.35 1.57 1.62 1.60 1.43 1.61 1.92 1.74 2.23 3.06 3.84 3.66 2.86 2.42 1.95 1.27 0.72 0.49 0.37 0.35 0.52 0.81 1.52 1.77 1.78 1.24 1.40 1.51 1.86 1.44 1.38 1.09 1.43 0.64 0.17 0.23 0.23 0.19 0.20 0.24 0.30 0.51 0.39 0.44 0.38 0.40 0.38 0.31 0.34 0.42
0.80 0.90 1.04 1.18 1.16 1.19 1.29 1.29 1.38 1.43 1.56 1.81 1.65 2.12 2.31 2.10 1.78 1.43 1.09 0.79 0.60 0.30 0.30 0.38 0.67 0.90 1.17 1.57 1.72 1.37 1.56 1.51 1.42 1.61 1.04 0.99 0.83 0.66 0.50 0.60 0.61 0.56 0.58 0.69 0.68 0.58 0.55 0.45 0.39 0.37 0.44 0.55 0.61 0.75
0.64 0.77 0.79 0.91 1.08 1.28 1.38 1.47 1.80 1.96 2.01 1.79 1.36 1.34 1.27 1.16 0.81 0.82 0.87 0.85 0.62 0.43 0.35 0.42 0.81 1.09 1.09 1.24 1.62 1.53 1.60 1.23 1.33 1.09 1.04 0.90 0.75 0.84 0.71 0.62 0.54 0.55 0.53 0.54 0.61 0.61 0.64 0.68 0.86 0.95 0.97 1.08 0.94 1.00
0.51 0.46 0.67 1.09 1.20 1.18 1.18 1.30 1.68 1.48 1.52 1.31 0.85 0.76 0.78 1.01 0.82 0.84 0.78 0.63 0.65 0.75 0.78 0.95 1.28 1.30 1.07 1.36 1.07 1.06 0.96 0.81 0.71 1.36 1.22 0.96 0.90 0.85 0.71 0.67 0.65 0.67 0.68 0.69 0.75 0.73 0.85 0.88 0.77 0.91 1.00 0.95 0.78 0.83
0.27 0.49 0.74 0.83 0.68 0.78 0.97 1.54 1.70 0.99 0.91 0.79 0.89 1.00 0.92 1.00 1.04 0.86 0.73 0.71 0.85 1.16 1.16 1.28 1.27 1.29 1.25 0.95 0.68 0.61 0.61 0.79 1.29 0.98 0.94 0.94 0.85 0.90 0.88 0.82 0.85 0.87 0.80 0.80 0.84 0.80 0.75 0.72 0.66 0.73 0.71 0.65 0.64 0.52
0.27 0.46 0.72 0.61 0.67 0.78 1.14 1.50 1.38 1.17 0.83 0.77 1.24 1.36 1.20 1.21 1.51 1.23 0.99 0.91 0.91 0.92 0.82 0.88 0.88 0.78 0.82 0.62 0.61 0.62 0.91 1.04 1.00 0.95 0.93 0.93 0.95 1.01 1.05 0.95 0.88 0.74 0.68 0.69 0.68 0.66 0.66 0.68 0.54 0.40 0.45 0.57 0.42 0.36
0.44 0.46 0.54 0.54 0.61 0.90 1.01 0.94 1.09 0.72 0.68 0.98 1.20 1.41 0.87 1.00 1.01 0.99 0.93 0.71 0.62 0.63 0.71 0.89 0.82 0.67 0.82 0.95 1.00 1.00 1.03 1.05 1.08 1.01 0.98 1.01 0.96 0.89 0.80 0.71 0.72 0.61 0.56 0.58 0.49 0.46 0.43 0.39 0.29 0.33 0.29 0.28 0.20 0.19
0.67 0.57 0.77 0.82 0.58 0.64 0.77 0.56 0.37 0.63 1.30 0.94 0.91 0.72 0.55 0.68 0.68 0.63 0.53 0.34 0.23 0.43 0.75 0.82 0.74 0.93 0.99 1.05 1.06 1.01 0.99 0.93 0.96 0.88 0.79 0.79 0.78 0.73 0.68 0.59 0.57 0.59 0.49 0.46 0.33 0.25 0.24 0.19 0.19 0.16 0.16 0.13 0.17 0.20
0.95 0.86 0.88 0.68 0.34 0.38 0.26 0.26 0.15 0.32 0.60 0.56 0.49 0.28 0.24 0.46 0.41 0.24 0.31 0.42 0.27 0.38 0.75 0.99 1.27 1.25 1.14 0.99 0.75 0.76 0.76 0.70 0.58 0.49 0.57 0.61 0.62 0.48 0.54 0.47 0.45 0.40 0.31 0.28 0.23 0.19 0.16 0.15 0.17 0.16 0.16 0.15 0.18 0.21
0.91 1.00 0.77 0.38 0.29 0.26 0.22 0.15 0.15 0.12 0.38 0.31 0.23 0.11 0.18 0.21 0.25 0.25 0.19 0.31 0.82 0.78 0.86 0.97 1.03 1.04 0.70 0.68 0.53 0.42 0.48 0.46 0.47 0.34 0.39 0.49 0.52 0.33 0.35 0.39 0.34 0.30 0.26 0.27 0.25 0.28 0.23 0.24 0.21 0.15 0.16 0.15 0.16 0.15
0.67 0.58 0.60 0.29 0.23 0.20 0.12 0.06 0.10 0.07 0.13 0.27 0.21 0.18 0.28 0.29 0.24 0.23 0.23 0.40 0.74 0.91 0.85 0.65 0.53 0.42 0.32 0.33 0.30 0.24 0.29 0.24 0.29 0.40 0.49 0.39 0.43 0.42 0.44 0.48 0.39 0.36 0.33 0.33 0.29 0.27 0.25 0.20 0.13 0.09 0.09 0.14 0.11 0.10
0.30 0.28 0.33 0.19 0.17 0.17 0.16 0.13 0.13 0.07 0.09 0.18 0.16 0.20 0.20 0.20 0.32 0.26 0.48 0.58 0.89 0.92 0.66 0.41 0.33 0.23 0.24 0.31 0.20 0.17 0.15 0.12 0.16 0.24 0.29 0.31 0.30 0.34 0.32 0.34 0.33 0.32 0.29 0.25 0.18 0.16 0.16 0.11 0.05 0.06 0.09 0.11 0.14 0.17
0.23 0.33 0.48 0.29 0.15 0.21 0.14 0.21 0.16 0.14 0.11 0.12 0.18 0.21 0.18 0.17 0.34 0.45 0.57 0.61 0.82 0.53 0.34 0.41 0.38 0.30 0.24 0.23 0.23 0.25 0.28 0.21 0.24 0.29 0.32 0.26 0.27 0.30 0.21 0.19 0.16 0.14 0.12 0.09 0.05 0.05 0.08 0.11 0.11 0.15 0.13 0.14 0.15 0.16
0.46 0.37 0.48 0.39 0.18 0.14 0.11 0.14 0.17 0.15 0.14 0.09 0.16 0.22 0.20 0.20 0.38 0.42 0.41 0.80 0.58 0.41 0.38 0.39 0.41 0.44 0.44 0.44 0.40 0.34 0.24 0.17 0.16 0.19 0.24 0.16 0.18 0.21 0.18 0.18 0.16 0.15 0.12 0.14 0.13 0.10 0.11 0.13 0.16 0.17 0.17 0.18 0.20 0.22
0.62 0.36 0.28 0.26 0.18 0.21 0.21 0.23 0.21 0.16 0.13 0.22 0.26 0.20 0.18 0.43 0.45 0.53 0.60 0.74 0.54 0.49 0.51 0.50 0.41 0.32 0.31 0.31 0.32 0.27 0.18 0.10 0.09 0.13 0.13 0.07 0.11 0.16 0.23 0.25 0.28 0.28 0.21 0.17 0.17 0.20 0.20 0.17 0.18 0.20 0.26 0.24 0.22 0.24
0.39 0.37 0.17 0.19 0.28 0.29 0.41 0.40 0.41 0.37 0.33 0.36 0.33 0.25 0.33 0.45 0.50 0.78 0.88 0.61 0.53 0.53 0.40 0.31 0.23 0.19 0.22 0.21 0.24 0.18 0.08 0.05 0.06 0.09 0.09 0.14 0.15 0.14 0.18 0.26 0.29 0.27 0.18 0.20 0.24 0.26 0.29 0.31 0.28 0.27 0.31 0.30 0.25 0.26
0.30 0.21 0.34 0.32 0.46 0.50 0.43 0.34 0.39 0.51 0.57 0.42 0.36 0.38 0.44 0.44 0.73 0.82 0.66 0.60 0.46 0.32 0.24 0.21 0.18 0.12 0.15 0.19 0.27 0.20 0.14 0.11 0.07 0.08 0.19 0.29 0.19 0.11 0.13 0.15 0.14 0.12 0.11 0.21 0.29 0.36 0.40 0.39 0.36 0.34 0.36 0.35 0.37 0.40
0.20 0.17 0.20 0.24 0.23 0.31 0.32 0.38 0.43 0.41 0.39 0.36 0.44 0.55 0.41 0.42 0.67 0.62 0.58 0.46 0.38 0.28 0.31 0.32 0.42 0.26 0.23 0.24 0.31 0.30 0.21 0.17 0.15 0.18 0.24 0.29 0.24 0.20 0.13 0.14 0.19 0.20 0.19 0.21 0.34 0.39 0.44 0.45 0.39 0.39 0.39 0.42 0.43 0.47
0.09 0.07 0.15 0.08 0.12 0.30 0.39 0.28 0.30 0.22 0.13 0.26 0.34 0.35 0.32 0.66 0.93 0.63 0.45 0.39 0.38 0.37 0.36 0.34 0.35 0.31 0.32 0.32 0.36 0.45 0.47 0.43 0.35 0.33 0.33 0.28 0.24 0.19 0.16 0.14 0.15 0.18 0.20 0.18 0.21 0.35 0.44 0.47 0.53 0.53 0.45 0.50 0.53 0.52
0.06 0.11 0.11 0.08 0.18 0.25 0.25 0.15 0.14 0.15 0.25 0.38 0.35 0.33 0.37 0.59 0.62 0.51 0.39 0.42 0.36 0.26 0.24 0.30 0.31 0.32 0.35 0.41 0.41 0.36 0.49 0.49 0.39 0.32 0.26 0.23 0.18 0.16 0.14 0.12 0.14 0.20 0.26 0.28 0.25 0.26 0.33 0.40 0.43 0.42 0.38 0.37 0.37 0.32
0.12 0.16 0.14 0.17 0.30 0.26 0.26 0.26 0.21 0.35 0.44 0.49 0.58 0.60 0.59 0.38 0.30 0.34 0.35 0.34 0.34 0.27 0.30 0.34 0.42 0.50 0.46 0.58 0.58 0.55 0.47 0.38 0.30 0.23 0.19 0.17 0.17 0.16 0.12 0.11 0.13 0.18 0.27 0.30 0.29 0.30 0.30 0.30 0.37 0.40 0.39 0.36 0.37 0.36
0.11 0.09 0.11 0.15 0.18 0.20 0.24 0.26 0.20 0.28 0.39 0.44 0.51 0.51 0.48 0.31 0.33 0.42 0.34 0.31 0.55 0.47 0.39 0.38 0.45 0.57 0.58 0.47 0.42 0.39 0.35 0.30 0.23 0.18 0.16 0.15 0.14 0.13 0.11 0.12 0.13 0.15 0.20 0.26 0.29 0.29 0.27 0.26 0.29 0.32 0.31 0.30 0.33 0.32

GFSWCAN_prec_precacc_195.txt.gz
Total_Precipitation_Accumulation
2.32 2.24 2.07 1.91 1.58 1.41 1.58 1.75 1.50 1.54 1.62 1.65 1.82 2.01 2.05 2.19 3.03 3.54 4.16 2.17 2.91 3.43 1.48 0.86 0.83 0.70 0.52 0.53 0.94 0.94 1.36 1.17 1.43 1.39 1.17 1.27 1.17 0.96 0.79 0.54 0.44 0.65 1.24 1.28 1.25 1.63 0.74 0.31 0.47 0.95 1.29 1.22 1.17 1.25
2.74 2.32 1.93 1.63 1.37 1.41 1.56 1.77 1.55 1.51 1.45 1.52 1.57 1.70 2.00 2.17 2.70 3.34 3.85 2.34 2.11 3.30 2.26 0.91 1.00 0.67 0.43 0.41 0.76 0.94 1.02 1.09 1.25 1.41 1.15 0.98 1.00 0.96 0.94 1.01 0.54 0.69 0.74 0.92 0.94 0.87 0.63 0.38 0.50 0.91 0.90 0.95 0.96 0.99
2.84 2.55 2.27 1.73 1.49 1.50 1.60 1.66 1.48 1.38 1.27 1.34 1.54 1.55 1.91 2.32 2.66 3.40 3.19 2.35 3.37 4.71 2.70 1.24 0.99 0.64 0.58 0.37 0.52 0.98 0.59 0.60 0.79 0.84 1.28 1.05 0.90 0.62 0.85 0.75 0.78 0.94 0.55 0.78 0.77 0.81 0.34 0.24 0.30 0.44 0.50 0.67 0.76 0.69
2.65 2.42 2.06 1.75 1.56 1.59 1.42 1.41 1.30 1.25 1.24 1.30 1.47 1.75 1.99 2.55 2.70 3.28 2.86 2.62 3.15 3.27 2.92 1.55 0.71 0.57 0.60 0.65 0.48 0.65 0.65 0.55 0.68 1.03 1.30 1.03 0.88 0.68 1.00 0.66 0.66 1.02 0.66 0.82 1.04 1.56 0.78 0.66 0.75 0.72 0.55 0.56 0.46 0.44
2.06 1.92 1.81 1.64 1.40 1.45 1.36 1.41 1.37 1.28 1.39 1.33 1.51 1.86 2.55 2.98 3.55 3.85 2.52 2.55 2.50 2.66 2.71 1.56 0.63 0.50 0.49 0.66 0.54 0.56 0.65 0.82 0.96 1.13 1.14 0.71 0.51 0.83 1.19 0.67 0.61 0.72 0.94 0.99 1.18 1.36 1.25 1.16 0.95 0.73 0.58 0.41 0.28 0.21
1.43 1.40 1.58 1.67 1.35 1.37 1.26 1.33 1.47 1.52 1.42 1.45 1.79 2.06 2.78 3.79 5.46 5.90 7.45 4.90 2.64 2.18 3.13 2.32 1.00 0.43 0.45 0.56 0.73 0.90 0.98 1.22 1.35 1.24 0.79 0.61 0.47 1.21 1.58 0.88 0.73 0.82 1.10 0.98 0.92 0.91 0.75 0.71 0.54 0.39 0.33 0.29 0.27 0.20
1.28 1.34 1.56 1.45 1.25 1.14 1.19 1.34 1.42 1.53 1.72 1.88 2.14 2.31 3.52 5.09 4.81 3.70 3.13 2.36 1.64 1.99 2.98 2.70 1.78 0.99 0.53 0.67 1.18 1.07 1.28 1.77 1.97 1.66 0.98 0.50 0.56 1.28 1.62 1.08 0.78 0.81 0.87 0.69 0.60 0.57 0.55 0.43 0.32 0.27 0.27 0.25 0.28 0.22
1.28 1.21 1.08 1.05 0.97 1.02 1.10 1.18 1.33 1.55 1.83 2.37 2.60 3.70 4.90 5.31 4.26 2.68 1.06 0.91 1.06 2.08 2.28 2.34 2.20 2.49 1.15 1.14 1.66 1.39 1.49 1.96 2.21 1.70 1.02 0.64 0.94 1.47 1.66 0.79 0.46 0.40 0.42 0.30 0.21 0.13 0.19 0.12 0.08 0.07 0.06 0.08 0.20 0.36
0.83 0.75 0.74 0.69 0.80 0.92 0.98 1.06 1.36 1.64 2.36 3.47 4.48 6.15 8.38 6.67 4.55 2.56 1.28 1.43 1.47 1.99 1.94 1.11 1.49 2.66 2.06 1.56 1.85 1.92 1.75 2.09 1.41 1.23 0.93 1.07 1.15 1.41 1.07 0.45 0.34 0.21 0.23 0.18 0.08 0.04 0.05 0.03 0.04 0.07 0.08 0.09 0.16 0.36
0.76 0.65 0.66 0.70 0.82 0.92 1.06 1.34 1.63 2.32 3.16 3.79 5.27 6.08 7.78 4.57 2.48 2.89 4.80 4.46 3.42 2.03 1.35 0.93 0.95 1.59 2.07 2.11 1.83 2.30 1.81 1.38 1.11 0.73 0.79 1.10 0.87 0.46 0.32 0.23 0.18 0.14 0.16 0.19 0.22 0.15 0.10 0.10 0.11 0.16 0.27 0.33 0.45 0.46
1.04 1.00 1.04 1.14 1.30 1.51 1.74 1.75 2.01 2.41 2.75 3.51 3.99 4.79 4.43 3.27 3.18 3.84 3.98 2.86 1.94 1.09 0.45 0.51 0.84 1.50 1.65 1.92 1.86 1.56 2.00 1.61 1.15 0.92 0.91 1.02 0.83 0.79 0.29 0.13 0.10 0.12 0.16 0.24 0.27 0.51 0.34 0.28 0.21 0.31 0.40 0.47 0.51 0.45
0.99 1.20 1.36 1.33 1.40 1.60 1.62 1.60 1.43 1.63 1.94 1.75 2.24 3.07 3.85 3.66 2.87 2.42 1.95 1.27 0.74 0.53 0.38 0.39 0.58 0.86 1.59 1.85 1.84 1.27 1.42 1.52 1.90 1.47 1.40 1.09 1.46 0.66 0.17 0.23 0.23 0.19 0.20 0.24 0.30 0.51 0.39 0.44 0.39 0.41 0.38 0.32 0.35 0.44
0.81 0.92 1.07 1.26 1.25 1.24 1.30 1.30 1.38 1.43 1.56 1.84 1.67 2.12 2.31 2.10 1.79 1.46 1.15 0.83 0.68 0.33 0.34 0.43 0.71 0.94 1.24 1.61 1.75 1.40 1.56 1.53 1.45 1.63 1.05 1.02 0.84 0.66 0.50 0.61 0.61 0.56 0.58 0.69 0.68 0.58 0.55 0.45 0.39 0.38 0.45 0.57 0.62 0.76
0.64 0.77 0.79 0.93 1.15 1.34 1.39 1.47 1.80 1.96 2.04 1.85 1.39 1.36 1.30 1.23 0.94 0.93 1.01 0.96 0.69 0.46 0.38 0.47 0.85 1.14 1.15 1.28 1.64 1.54 1.62 1.25 1.35 1.10 1.05 0.93 0.75 0.84 0.71 0.62 0.54 0.55 0.53 0.54 0.61 0.61 0.64 0.68 0.86 0.95 0.97 1.08 0.94 1.00
0.51 0.46 0.67 1.09 1.20 1.18 1.18 1.30 1.68 1.50 1.58 1.35 0.87 0.81 0.88 1.06 0.85 0.85 0.81 0.66 0.68 0.78 0.81 0.99 1.31 1.33 1.10 1.37 1.09 1.07 0.96 0.82 0.71 1.41 1.31 1.08 0.90 0.85 0.71 0.67 0.65 0.67 0.68 0.69 0.76 0.73 0.85 0.88 0.77 0.91 1.00 0.95 0.78 0.83
0.27 0.49 0.74 0.83 0.68 0.78 0.97 1.54 1.70 0.99 0.92 0.81 0.91 1.02 0.92 1.01 1.04 0.86 0.73 0.72 0.86 1.18 1.21 1.34 1.30 1.32 1.25 0.96 0.68 0.61 0.62 0.82 1.40 1.06 0.97 1.01 0.88 0.90 0.88 0.82 0.85 0.87 0.80 0.80 0.84 0.80 0.75 0.72 0.66 0.73 0.71 0.65 0.64 0.52
0.27 0.46 0.72 0.61 0.67 0.78 1.14 1.50 1.40 1.18 0.83 0.78 1.25 1.37 1.20 1.22 1.51 1.23 1.00 0.94 0.92 0.93 0.89 0.97 0.92 0.81 0.85 0.63 0.61 0.62 0.93 1.12 1.03 0.96 0.94 0.93 0.95 1.01 1.05 0.95 0.88 0.74 0.68 0.69 0.68 0.66 0.66 0.69 0.54 0.40 0.45 0.57 0.42 0.36
0.44 0.46 0.54 0.54 0.61 0.90 1.01 0.95 1.12 0.72 0.68 0.99 1.21 1.42 0.87 1.00 1.01 0.99 0.93 0.73 0.65 0.65 0.77 0.99 0.92 0.74 0.87 0.98 1.03 1.08 1.10 1.06 1.08 1.01 0.98 1.01 0.96 0.89 0.80 0.71 0.72 0.61 0.56 0.58 0.49 0.46 0.43 0.39 0.29 0.33 0.29 0.28 0.20 0.19
0.67 0.57 0.77 0.82 0.58 0.64 0.77 0.56 0.37 0.63 1.31 0.94 0.91 0.72 0.55 0.68 0.68 0.63 0.53 0.34 0.25 0.47 0.84 0.93 0.79 0.96 1.05 1.12 1.16 1.06 1.01 0.93 0.96 0.88 0.79 0.79 0.78 0.73 0.68 0.59 0.57 0.59 0.49 0.46 0.33 0.25 0.24 0.19 0.19 0.16 0.16 0.13 0.17 0.20
0.95 0.86 0.88 0.68 0.34 0.38 0.26 0.27 0.16 0.32 0.61 0.58 0.50 0.29 0.25 0.46 0.42 0.24 0.32 0.42 0.28 0.38 0.75 1.00 1.28 1.27 1.21 1.12 0.87 0.81 0.77 0.70 0.58 0.49 0.57 0.61 0.62 0.48 0.54 0.47 0.45 0.40 0.32 0.28 0.23 0.19 0.16 0.15 0.17 0.16 0.16 0.15 0.18 0.21
0.91 1.00 0.77 0.38 0.29 0.26 0.22 0.16 0.17 0.12 0.39 0.32 0.26 0.15 0.20 0.23 0.26 0.26 0.20 0.32 0.83 0.78 0.86 0.97 1.03 1.07 0.73 0.71 0.56 0.43 0.49 0.46 0.47 0.34 0.39 0.49 0.52 0.33 0.35 0.39 0.35 0.31 0.27 0.28 0.26 0.28 0.23 0.24 0.21 0.15 0.16 0.15 0.17 0.15
0.69 0.58 0.60 0.30 0.23 0.20 0.13 0.06 0.11 0.13 0.16 0.28 0.23 0.23 0.32 0.31 0.25 0.24 0.24 0.43 0.75 0.91 0.85 0.65 0.55 0.46 0.33 0.33 0.30 0.24 0.29 0.24 0.29 0.40 0.49 0.40 0.43 0.42 0.44 0.49 0.40 0.37 0.33 0.33 0.29 0.28 0.26 0.21 0.13 0.09 0.09 0.14 0.11 0.10
0.30 0.29 0.34 0.20 0.18 0.17 0.16 0.13 0.13 0.07 0.12 0.20 0.18 0.24 0.23 0.26 0.36 0.28 0.50 0.60 0.90 0.92 0.66 0.41 0.34 0.23 0.24 0.31 0.20 0.17 0.15 0.13 0.16 0.24 0.29 0.32 0.32 0.34 0.33 0.35 0.33 0.32 0.29 0.26 0.19 0.18 0.18 0.12 0.05 0.06 0.09 0.12 0.14 0.17
0.23 0.33 0.49 0.29 0.15 0.22 0.15 0.21 0.16 0.14 0.13 0.14 0.21 0.25 0.22 0.24 0.45 0.55 0.61 0.62 0.84 0.54 0.34 0.41 0.38 0.30 0.25 0.23 0.23 0.25 0.28 0.21 0.24 0.29 0.33 0.27 0.29 0.33 0.25 0.21 0.16 0.14 0.12 0.09 0.05 0.07 0.09 0.12 0.12 0.15 0.13 0.14 0.15 0.16
0.46 0.37 0.48 0.39 0.19 0.15 0.12 0.14 0.17 0.15 0.14 0.09 0.16 0.24 0.23 0.26 0.48 0.51 0.46 0.87 0.66 0.44 0.40 0.39 0.42 0.45 0.46 0.45 0.41 0.35 0.24 0.17 0.17 0.19 0.24 0.17 0.21 0.23 0.21 0.20 0.17 0.15 0.12 0.14 0.13 0.11 0.13 0.14 0.16 0.18 0.17 0.18 0.20 0.22
0.62 0.36 0.28 0.26 0.19 0.22 0.22 0.24 0.22 0.16 0.14 0.22 0.27 0.20 0.19 0.44 0.47 0.56 0.65 0.81 0.60 0.53 0.53 0.52 0.44 0.35 0.35 0.36 0.38 0.34 0.21 0.11 0.10 0.15 0.15 0.07 0.12 0.20 0.24 0.26 0.29 0.29 0.21 0.17 0.18 0.21 0.22 0.19 0.20 0.21 0.26 0.25 0.23 0.24
0.39 0.37 0.17 0.19 0.28 0.29 0.41 0.40 0.41 0.37 0.33 0.37 0.34 0.26 0.34 0.46 0.50 0.78 0.88 0.62 0.53 0.53 0.40 0.31 0.23 0.20 0.26 0.26 0.27 0.24 0.12 0.09 0.12 0.16 0.13 0.15 0.15 0.15 0.20 0.27 0.30 0.29 0.18 0.20 0.24 0.27 0.30 0.33 0.30 0.29 0.32 0.31 0.26 0.26
0.30 0.21 0.34 0.32 0.46 0.50 0.43 0.34 0.39 0.51 0.57 0.42 0.36 0.39 0.44 0.44 0.75 0.82 0.66 0.60 0.46 0.32 0.24 0.21 0.18 0.13 0.16 0.21 0.29 0.23 0.16 0.14 0.13 0.14 0.23 0.33 0.22 0.13 0.14 0.16 0.14 0.12 0.11 0.21 0.29 0.36 0.40 0.40 0.37 0.37 0.39 0.38 0.39 0.40
0.20 0.17 0.20 0.24 0.23 0.31 0.32 0.38 0.43 0.41 0.39 0.36 0.44 0.55 0.41 0.43 0.68 0.62 0.58 0.46 0.38 0.28 0.31 0.32 0.42 0.27 0.24 0.26 0.33 0.32 0.23 0.22 0.21 0.24 0.28 0.32 0.28 0.22 0.16 0.16 0.20 0.21 0.20 0.22 0.34 0.39 0.44 0.45 0.39 0.39 0.41 0.44 0.46 0.51
0.09 0.07 0.15 0.08 0.12 0.30 0.39 0.28 0.30 0.22 0.13 0.26 0.34 0.35 0.32 0.66 0.93 0.63 0.45 0.39 0.38 0.38 0.37 0.34 0.36 0.32 0.33 0.34 0.40 0.50 0.51 0.47 0.42 0.41 0.39 0.33 0.28 0.21 0.17 0.18 0.18 0.21 0.21 0.18 0.21 0.35 0.44 0.47 0.53 0.53 0.46 0.50 0.53 0.53
0.06 0.11 0.11 0.08 0.18 0.25 0.25 0.15 0.14 0.15 0.25 0.38 0.35 0.33 0.37 0.59 0.62 0.51 0.39 0.43 0.37 0.27 0.25 0.31 0.32 0.33 0.36 0.43 0.43 0.43 0.59 0.55 0.42 0.36 0.34 0.32 0.28 0.25 0.20 0.17 0.18 0.22 0.28 0.30 0.26 0.27 0.33 0.40 0.43 0.43 0.38 0.37 0.38 0.33
0.12 0.16 0.14 0.17 0.30 0.26 0.26 0.26 0.21 0.35 0.44 0.49 0.58 0.60 0.59 0.38 0.30 0.34 0.35 0.34 0.34 0.28 0.30 0.34 0.43 0.51 0.47 0.60 0.61 0.59 0.54 0.43 0.34 0.29 0.27 0.26 0.25 0.22 0.18 0.18 0.19 0.23 0.30 0.32 0.30 0.31 0.30 0.30 0.37 0.40 0.39 0.36 0.38 0.36
0.12 0.09 0.12 0.15 0.18 0.20 0.24 0.26 0.20 0.28 0.39 0.44 0.51 0.51 0.49 0.31 0.33 0.42 0.34 0.31 0.55 0.47 0.39 0.39 0.46 0.59 0.60 0.48 0.43 0.42 0.38 0.33 0.26 0.22 0.21 0.21 0.19 0.17 0.16 0.17 0.18 0.21 0.24 0.30 0.31 0.30 0.27 0.26 0.29 0.32 0.31 0.30 0.33 0.33